This demonstration page uses our WeatherBlox Daily Observations layout. Learn more.

Left ArrowRight Arrow

Hourly Observations for September 20, 2020

Temp ( °F °C ) Dew Point ( °F °C ) Humidity (%) Winds ( mph kmh ) Pressure ( in mb ) Visibility ( mi km ) Precip ( " mm )
12:59 am 00:59 Cloudy 63 17.2 49 9.4 60 60 NNE 20 31 30.30 1026 10 16 0.00 0.00
1:59 am 01:59 Cloudy 63 17.2 49 9.4 60 60 NE 17 28 30.30 1026 10 16 0.00 0.00
2:59 am 02:59 Cloudy 63 17.2 49 9.4 60 60 NE 16 26 30.30 1026 10 16 0.00 0.00
3:59 am 03:59 Cloudy 63 17.2 49 9.4 60 60 NNE 17 28 30.30 1026 10 16 0.00 0.00
4:59 am 04:59 Mostly Cloudy 63 17.2 49 9.4 60 60 NNE 16 26 30.30 1026 10 16 0.00 0.00
5:59 am 05:59 Partly Cloudy 63 17.2 48 8.9 58 58 NE 20 31 30.32 1027 10 16 0.00 0.00
6:59 am 06:59 Partly Cloudy 63 17.2 48 8.9 58 58 NNE 16 26 30.33 1027 10 16 0.00 0.00
7:59 am 07:59 Mostly Cloudy 64 17.8 48 8.9 56 56 NNE 20 31 30.34 1028 10 16 0.00 0.00
8:59 am 08:59 Mostly Sunny 66 18.9 48 8.9 52 52 NNE 21 33 30.36 1028 10 16 0.00 0.00
9:59 am 09:59 Mostly Sunny 67 19.4 48 8.9 51 51 NNE 21 33 30.37 1029 10 16 0.00 0.00
10:59 am 10:59 Mostly Sunny 69 20.6 48 8.9 47 47 NNE 16 26 30.39 1029 10 16 0.00 0.00
11:59 am 11:59 Partly Cloudy 70 21.1 49 9.4 47 47 NE 17 28 30.40 1030 10 16 0.00 0.00
12:59 pm 12:59 Mostly Cloudy 68 20 49 9.4 51 51 NNE 20 31 30.41 1030 10 16 0.00 0.00
1:59 pm 13:59 Mostly Cloudy 69 20.6 51 10.6 53 53 NNE 16 26 30.40 1030 10 16 0.00 0.00
2:59 pm 14:59 Mostly Cloudy 70 21.1 49 9.4 47 47 ENE 17 28 30.39 1029 10 16 0.00 0.00
3:59 pm 15:59 Mostly Cloudy 67 19.4 48 8.9 51 51 NE 18 30 30.39 1029 10 16 0.00 0.00
4:59 pm 16:59 Mostly Cloudy 67 19.4 49 9.4 53 53 NE 17 28 30.39 1029 10 16 0.00 0.00
5:59 pm 17:59 Mostly Cloudy 66 18.9 48 8.9 52 52 NE 18 30 30.40 1030 10 16 0.00 0.00
6:59 pm 18:59 Partly Cloudy 64 17.8 45 7.2 50 50 NE 17 28 30.42 1030 10 16 0.00 0.00
7:59 pm 19:59 Clear 63 17.2 47 8.3 56 56 NE 15 24 30.42 1030 10 16 0.00 0.00
8:59 pm 20:59 Mostly Clear 62 16.7 46 7.8 56 56 NE 21 33 30.44 1031 10 16 0.00 0.00
9:59 pm 21:59 Mostly Clear 62 16.7 45 7.2 54 54 NE 20 31 30.45 1031 10 16 0.00 0.00
10:59 pm 22:59 Mostly Clear 62 16.7 44 6.7 52 52 NNE 20 31 30.45 1031 10 16 0.00 0.00
11:59 pm 23:59 Mostly Clear 61 16.1 46 7.8 58 58 NE 15 24 30.44 1031 10 16 0.00 0.00

Powered by AerisWeather